Location: Camp Crooked Creek
(37.9149°N, 85.6607°W)
Time: 10:27:11
(UTC-05:00)

Lacrosse 4 - Visible Passes

Search period start: 30 January 2015 00:00
Search period end: 09 February 2015 00:00
Orbit: 673 x 680 km, 68.0° (Epoch: 25 February)

Date Brightness Start Highest point End Pass type
(mag) Time Alt. Az. Time Alt. Az. Time Alt. Az.
30 Jan 2.8 19:14:15 10° N 19:18:06 24° NE 19:18:42 24° ENE visible
30 Jan 3.7 20:54:37 10° NW 20:57:06 26° WNW 20:57:06 26° WNW visible
31 Jan 1.6 19:49:07 10° NNW 19:53:54 69° ENE 19:54:56 52° ESE visible
31 Jan 4.8 21:32:35 10° W 21:33:22 11° W 21:33:22 11° W visible
01 Feb 2.9 18:44:34 10° N 18:48:22 24° NE 18:52:15 10° ESE visible
01 Feb 3.1 20:24:53 10° NW 20:29:17 37° WSW 20:31:48 21° SSW visible
02 Feb 1.6 19:19:25 10° NNW 19:24:10 67° ENE 19:28:54 10° SE visible
02 Feb 4.8 21:02:41 10° W 21:04:27 12° WSW 21:05:55 10° WSW visible
03 Feb 3.2 19:55:08 10° NW 19:59:34 38° WSW 20:03:57 10° S visible
04 Feb 1.7 18:49:41 10° NNW 18:54:27 65° ENE 18:59:10 10° SE visible
04 Feb 4.9 20:32:49 10° W 20:34:44 12° WSW 20:36:23 10° SW visible
05 Feb 3.2 19:25:24 10° NW 19:29:52 39° WSW 19:34:15 10° S visible
06 Feb 5.0 20:02:57 10° WNW 20:05:01 12° WSW 20:06:49 10° SW visible
07 Feb 3.3 18:55:39 10° NW 19:00:09 40° WSW 19:04:33 10° S visible
08 Feb 5.1 19:33:07 10° WNW 19:35:18 13° WSW 19:37:14 10° SW visible
